Home   Weather   Giessen   Past weeks

Flag for Germany Past Weather in Giessen, Hesse, Germany — Yesterday and Last 2 Weeks

Now
41 °F

Passing clouds.


Feels Like: 30 °F
Forecast: 35 / 43 °F
Wind: 26 mph from West

Location: Hessen

Current Time: Feb 23, 2017 at 10:00:25 pm

Latest Report: Feb 23, 2017 at 8:50 pm


Visibility: N/A

Pressure: 29.33 "Hg

Humidity: 66%

Dew Point: 30 °F

Location of GiessenLocation

Past Weather in Giessen — Graph

°F

Giessen Temperature Yesterday

Maximum temperature yesterday: 45 °F (at 8:20 am)
Minimum temperature yesterday: 43 °F (at 9:20 am)
Average temperature yesterday: 45 °F

High & Low Weather Summary for the Past Weeks

 TemperatureHumidityPressure
High54 °F (Feb 15, 12:50 pm)100% (Feb 8, 8:20 pm)30.51 "Hg (Feb 8, 8:20 pm)
Low21 °F (Feb 9, 7:50 am)44% (Feb 15, 1:50 pm)29.30 "Hg (Feb 23, 5:20 pm)
Average37 °F90%30.13 "Hg
* Reported Feb 8 8:20 pm — Feb 23 8:20 pm, Giessen, Weather by CustomWeather, © 2017

Note: Actual official high and low records may vary slightly from our data, if they occured in-between our weather recording intervals... More about our weather records

Advertising

Giessen Weather History for the Previous 24 Hours

Scroll right to see more
 ConditionsComfort  
Time TempWeatherWind HumidityBarometerVisibility
8:20 pm
Thu, Feb 23
41 °FPartly cloudy.30 mph66%29.33 "HgN/A
7:50 pm43 °FPassing clouds.28 mph66%29.33 "HgN/A
7:20 pm41 °FPassing clouds.28 mph81%29.33 "HgN/A
6:50 pm41 °FPartly cloudy.26 mph81%29.33 "HgN/A
6:20 pm41 °FPartly cloudy.24 mph93%29.30 "HgN/A
5:20 pm43 °FBroken clouds.28 mph100%29.30 "HgN/A
4:50 pm41 °FLight rain. Partly sunny.21 mph100%29.33 "HgN/A
4:20 pm41 °FLight rain. Partly sunny.18 mph100%29.33 "Hg5 mi
3:50 pm41 °FLight rain. Partly sunny.20 mph100%29.33 "HgN/A
3:20 pm41 °FLight rain. Partly sunny.21 mph100%29.36 "HgN/A
2:50 pm41 °FLight rain. Fog.18 mph100%29.39 "Hg3 mi
2:20 pm41 °FLight rain. Partly sunny.18 mph100%29.42 "Hg5 mi
1:50 pm41 °FBroken clouds.20 mph100%29.42 "HgN/A
1:20 pm41 °FBroken clouds.20 mph100%29.45 "HgN/A
12:50 pm41 °FBroken clouds.18 mph100%29.47 "HgN/A
12:20 pm41 °FLight rain. Broken clouds.17 mph100%29.47 "Hg5 mi
11:20 am41 °FBroken clouds.18 mph100%29.50 "Hg4 mi
10:50 am41 °FDrizzle. Fog.22 mph100%29.53 "Hg3 mi
10:20 am41 °FDrizzle. More clouds than sun.20 mph100%29.53 "Hg2 mi
9:20 am41 °FDrizzle. More clouds than sun.18 mph100%29.56 "Hg1 mi
8:20 am41 °FDrizzle. More clouds than sun.16 mph100%29.59 "Hg1 mi
Weather by CustomWeather, © 2017

See weather overviewHow to use our weather pages